+ View the NASA Portal
+ Center for Near-Earth Object Studies
IMPORTANT:
The SSD Announcement email list is now available. Major changes are coming in the near future, including possible hostname and/or URL changes. To be notified of such changes, subscribe to this email list.
Please visit
this page
for more details.
Don't show this message again
JPL Small-Body Database Browser
Search:
[
help
]
277105 (2005 FR14)
Classification:
Main-belt Asteroid
SPK-ID:
2277105
[
Ephemeris
|
Orbit Diagram
|
Orbital Elements
|
Mission Design
|
Physical Parameters
|
Discovery Circumstances
|
Close-Approach Data
]
[ show orbit diagram ]
Orbital Elements at Epoch 2458600.5 (2019-Apr-27.0) TDB
Reference:
JPL 14
(heliocentric ecliptic J2000)
Element
Value
Uncertainty (1-sigma)
Units
e
.0453607993822962
5.955e-08
a
3.165291387586292
4.1995e-08
au
q
3.02171123996748
1.9639e-07
au
i
10.50956678817058
5.7609e-06
deg
node
122.0537217617943
3.2906e-05
deg
peri
55.00293491169281
6.9798e-05
deg
M
188.9103802862294
6.2607e-05
deg
t
p
2459578.052591167370
(2021-Dec-29.55259117)
0.0003659
TDB
period
2056.927436094639
5.63
4.0935e-05
1.121e-07
d
yr
n
.1750183276681407
3.483e-09
deg/d
Q
3.308871535205104
4.39e-08
au
Orbit Determination Parameters
# obs. used (total)
264
data-arc span
9803 days (26.84 yr)
first obs. used
1992-12-24
last obs. used
2019-10-27
planetary ephem.
DE431
SB-pert. ephem.
SB431-N16
condition code
0
norm. resid. RMS
.58769
source
ORB
producer
Otto Matic
solution date
2019-Nov-08 05:21:25
Additional Information
Earth MOID
= 2.04317 au
Jupiter MOID
= 1.72992 au
T_jup
= 3.176
[ show covariance matrix ]
[
Ephemeris
|
Orbit Diagram
|
Orbital Elements
|
Mission Design
|
Physical Parameters
|
Discovery Circumstances
|
Close-Approach Data
]
Physical Parameter Table
Parameter
Symbol
Value
Units
Sigma
Reference
Notes
absolute magnitude
H
15.3
n/a
MPO418473
277105 (2005 FR14)
Discovered 2005-Mar-16 by CSS at Catalina
Reference:
20110517/Numbers.arc
Last Updated:
2011-05-20
[ show close-approach data ]
Alternate Designations
2005 FR14
= 2008 XN9 = 2010 AM25
[
Ephemeris
|
Orbit Diagram
|
Orbital Elements
|
Mission Design
|
Physical Parameters
|
Discovery Circumstances
|
Close-Approach Data
]
2019-Dec-14 00:35 UT
(server date/time)
Site Manager:
Ryan S. Park
Webmaster
:
Alan B. Chamberlin